Weather History for KAXN - March, 2013

Change the Weather History Date:

Saturday, March 2, 2013

  Actual Average Record
Temperature  
Mean Temperature 13 °F -  
Max Temperature 23 °F 28 °F 47 °F (1961)
Min Temperature 3 °F 11 °F -20 °F (1972)
Degree Days  
Heating Degree Days 52    
Moisture  
Dew Point 5 °F    
Average Humidity 76    
Maximum Humidity 92    
Minimum Humidity 53    
Precipitation  
Precipitation 0.00 in - - ()
Sea Level Pressure  
Sea Level Pressure 30.31 in    
Wind  
Wind Speed 3 mph (SE)    
Max Wind Speed 12 mph    
Max Gust Speed -    
Visibility 6 miles    
Events Fog    
Averages and records for this station are not official NWS values.
T = Trace of Precipitation, MM = Missing Value Source: NWS Daily Summary

Daily Weather History Graph

Daily Weather History Graph

Search for Another Location

Airport or City:

Trip Planner

Search our weather history database for the weather conditions in past years. The results will help you decide how hot, cold, wet, or windy it might be!

Date:

Astronomy

Mar. 02, 2013 Rise Set
Actual Time 6:57 AM CST 6:10 PM CST
Civil Twilight 6:28 AM CST 6:39 PM CST
Nautical Twilight 5:53 AM CST 7:14 PM CST
Astronomical Twilight 5:19 AM CST 7:49 PM CST
Moon No Moon Rise 9:08 AM CST (3/2)
Length of Visible Light 12h 11m
Length of Day
11h 12m
Waning Gibbous, 74% of the Moon is Illuminated
Mar 2
Waning Gibbous
Mar 4
Last Quarter
Mar 11
New
Mar 19
First Quarter
Mar 27
Full

Hourly Weather History & Observations

Time (CST) Temp. Windchill Dew Point Humidity Pressure Visibility Wind Dir Wind Speed Gust Speed Precip Events Conditions
12:01 AM 6.8 °F - 3.2 °F 85% 30.32 in 0.8 mi Calm Calm - N/A   Clear
12:05 AM 5.0 °F - 1.4 °F 85% 30.32 in 1.5 mi Calm Calm - N/A   Clear
12:11 AM 5.0 °F - 1.4 °F 85% 30.32 in 0.8 mi Calm Calm - N/A   Clear
12:21 AM 8.6 °F - 5.0 °F 85% 30.32 in 0.5 mi Calm Calm - N/A Fog Light Freezing Fog
12:43 AM 8.6 °F - 3.2 °F 79% 30.32 in 1.0 mi Calm Calm - N/A   Clear
12:46 AM 8.6 °F - 3.2 °F 79% 30.32 in 3.0 mi Calm Calm - N/A   Clear
12:53 AM 8.1 °F - 3.9 °F 83% 30.41 in 9.0 mi Calm Calm - N/A   Clear
1:38 AM 6.8 °F - 1.4 °F 79% 30.33 in 1.5 mi Calm Calm - N/A   Haze
1:42 AM 6.8 °F - 3.2 °F 85% 30.33 in 0.8 mi Calm Calm - N/A   Clear
1:50 AM 6.8 °F - 5.0 °F 92% 30.33 in 1.5 mi Calm Calm - N/A   Clear
1:53 AM 7.0 °F - 5.0 °F 92% 30.42 in 3.0 mi Calm Calm - N/A   Clear
2:04 AM 3.2 °F - 1.4 °F 92% 30.33 in 1.5 mi Calm Calm - N/A   Clear
2:08 AM 5.0 °F - -0.4 °F 78% 30.32 in 0.8 mi Calm Calm - N/A   Haze
2:16 AM 3.2 °F - -0.4 °F 85% 30.32 in 0.2 mi Calm Calm - N/A Fog Light Freezing Fog
2:32 AM 5.0 °F - 1.4 °F 85% 30.32 in 0.2 mi Calm Calm - N/A Fog Light Freezing Fog
3:08 AM 5.0 °F -2.1 °F 3.2 °F 92% 30.31 in 1.0 mi ESE 3.5 mph - N/A   Mist
3:10 AM 5.0 °F -2.1 °F 1.4 °F 85% 30.31 in 2.0 mi ESE 3.5 mph - N/A   Scattered Clouds
3:17 AM 5.0 °F -4.1 °F -0.4 °F 78% 30.31 in 10.0 mi ESE 4.6 mph - N/A   Partly Cloudy
3:53 AM 5.0 °F -4.1 °F -0.0 °F 80% 30.39 in 10.0 mi SE 4.6 mph - N/A   Clear
4:53 AM 6.1 °F -0.9 °F -0.0 °F 76% 30.39 in 10.0 mi SSE 3.5 mph - N/A   Clear
6:53 AM 6.1 °F -0.9 °F -0.0 °F 76% 30.39 in 10.0 mi SE 3.5 mph - N/A   Clear
7:53 AM 7.0 °F 0.1 °F 1.0 °F 77% 30.38 in 10.0 mi SE 3.5 mph - N/A   Clear
8:53 AM 12.0 °F 2.7 °F 5.0 °F 73% 30.37 in 10.0 mi SSE 5.8 mph - N/A   Clear
9:53 AM 15.1 °F 5.2 °F 9.0 °F 77% 30.37 in 10.0 mi SSE 6.9 mph - N/A   Clear
10:53 AM 17.1 °F 6.6 °F 9.0 °F 71% 30.36 in 10.0 mi SE 8.1 mph - N/A   Clear
11:53 AM 19.0 °F 9.0 °F 8.1 °F 62% 30.33 in 10.0 mi SSE 8.1 mph - N/A   Clear
12:53 PM 21.0 °F 11.4 °F 7.0 °F 55% 30.31 in 10.0 mi SE 8.1 mph - N/A   Clear
1:53 PM 21.9 °F 11.0 °F 7.0 °F 53% 30.29 in 10.0 mi SSE 10.4 mph - N/A   Mostly Cloudy
2:53 PM 23.0 °F 13.9 °F 9.0 °F 55% 30.27 in 10.0 mi SSE 8.1 mph - N/A   Overcast
3:53 PM 21.9 °F 11.0 °F 12.0 °F 66% 30.26 in 10.0 mi ESE 10.4 mph - N/A   Overcast
4:53 PM 21.9 °F 12.5 °F 12.0 °F 66% 30.25 in 10.0 mi SE 8.1 mph - N/A   Overcast
5:53 PM 21.9 °F 11.0 °F 10.9 °F 63% 30.25 in 10.0 mi SE 10.4 mph - N/A   Overcast
7:53 PM 21.0 °F 11.4 °F 12.0 °F 68% 30.24 in 10.0 mi SE 8.1 mph - N/A   Overcast
8:53 PM 21.0 °F 11.4 °F 10.9 °F 65% 30.22 in 10.0 mi SE 8.1 mph - N/A   Overcast
9:53 PM 21.0 °F 9.3 °F 12.0 °F 68% 30.20 in 10.0 mi ESE 11.5 mph - N/A   Overcast
10:53 PM 19.9 °F 8.6 °F 12.0 °F 71% 30.19 in 10.0 mi SE 10.4 mph - N/A   Overcast
11:53 PM 19.9 °F 8.6 °F 12.0 °F 71% 30.16 in 10.0 mi SSE 10.4 mph - N/A   Overcast